N8VIM Weather Reports


time (UTC)temp
C
wind
direction
speed
KPH
gust
KPH
rain 1hr
cm
rain 24hr
cm
rain mn
cm
humidity
%
barometer
mb
20260510082023 8 0 0.0 0.0 321.69 0.00 0.00 99 1011.8
20260510081523 8 0 0.0 0.0 321.69 0.00 0.00 99 1011.8
20260510080522 8 252 0.0 1.6 321.69 0.00 0.00 98 1011.7
20260510080024 8 0 0.0 0.0 321.69 0.00 0.00 98 1011.7
20260510075523 8 0 0.0 0.0 321.69 0.00 0.00 98 1011.6
20260510075022 8 0 0.0 0.0 321.69 0.00 0.00 98 1011.7
20260510074523 8 278 0.0 3.2 321.69 0.00 0.00 98 1011.5
20260510073525 8 257 4.8 6.4 321.69 0.00 0.00 98 1011.7
20260510073025 8 271 3.2 6.4 321.69 0.00 0.00 98 1011.7
20260510072522 8 290 4.8 8.0 321.69 0.00 0.00 98 1011.5
20260510072022 8 276 4.8 6.4 321.69 0.00 0.00 98 1011.6
20260510071522 8 284 1.6 6.4 321.69 0.00 0.00 98 1011.4
20260510071022 8 297 1.6 4.8 321.69 0.00 0.00 98 1011.4
20260510070522 8 0 1.6 0.0 321.69 0.00 0.00 98 1011.2
20260510070023 8 0 0.0 0.0 321.69 0.00 0.00 98 1011.2
20260510065022 8 0 0.0 0.0 321.69 0.00 0.00 98 1011.0
20260510064522 8 0 0.0 0.0 321.69 0.00 0.00 98 1011.3
20260510064022 8 0 0.0 0.0 321.69 0.00 0.00 98 1011.3
20260510063522 8 0 0.0 0.0 321.69 0.00 0.00 98 1011.3
20260510063023 8 0 0.0 0.0 321.69 0.00 0.00 98 1011.5
20260510062522 8 0 0.0 0.0 321.69 0.00 0.00 98 1011.5
20260510062022 8 0 0.0 0.0 321.69 0.00 0.00 98 1011.3
20260510061522 8 0 0.0 0.0 321.69 0.00 0.00 98 1011.5
20260510061023 8 0 0.0 0.0 321.69 0.00 0.00 98 1011.5
20260510060523 8 0 0.0 0.0 321.69 0.00 0.00 98 1011.7
20260510060024 9 0 0.0 0.0 321.69 0.00 0.00 98 1011.7
20260510055522 9 0 0.0 0.0 321.69 0.00 0.00 98 1011.8
20260510054523 9 0 0.0 0.0 321.69 0.00 0.00 98 1011.8
20260510054023 9 308 0.0 1.6 321.69 0.00 0.00 98 1011.8
20260510053522 8 0 0.0 0.0 321.69 0.00 0.00 98 1011.7
20260510053023 9 0 0.0 0.0 321.69 0.00 0.00 98 1011.8
20260510052523 9 0 0.0 0.0 321.69 0.00 0.00 98 1011.9
20260510052022 9 0 0.0 0.0 321.69 0.00 0.00 98 1012.0
20260510051023 9 0 0.0 0.0 321.69 0.00 0.00 98 1012.0
20260510050522 9 0 0.0 0.0 321.69 0.00 0.00 98 1012.1
20260510050022 9 0 0.0 0.0 321.69 0.00 0.00 98 1012.0
20260510045022 9 0 0.0 0.0 321.69 0.00 0.00 98 1012.0
20260510044523 8 0 0.0 0.0 321.69 0.00 0.00 98 1011.9
20260510043524 9 0 0.0 0.0 321.69 0.00 0.00 98 1012.1
20260510043023 9 0 0.0 0.0 321.69 0.00 0.00 98 1012.2
20260510042522 8 0 0.0 0.0 321.69 0.00 0.00 98 1012.1
20260510042021 8 0 0.0 0.0 321.69 0.00 0.00 98 1012.1
20260510041523 8 0 0.0 0.0 321.69 0.00 0.00 98 1012.1
20260510041022 8 0 0.0 0.0 321.69 0.00 0.00 98 1012.1
20260510040521 8 0 0.0 0.0 321.69 0.00 0.00 98 1012.1
20260510040022 8 0 0.0 0.0 321.69 0.00 0.00 97 1012.1
20260510035524 8 0 0.0 0.0 321.69 0.00 1.27 98 1012.0
20260510035023 8 0 0.0 0.0 321.69 0.00 1.27 98 1012.0
20260510034524 8 284 0.0 4.8 321.69 0.00 1.27 98 1012.2
20260510034021 8 288 3.2 4.8 321.69 0.00 1.27 98 1012.3
20260510033521 8 311 1.6 1.6 321.69 0.00 1.27 98 1012.3
20260510033023 8 0 0.0 0.0 321.69 0.00 1.27 98 1012.3
20260510032523 8 0 0.0 0.0 321.69 0.00 1.27 98 1012.1
20260510032024 9 0 0.0 0.0 321.69 0.00 1.27 98 1012.1
20260510031523 8 0 0.0 0.0 321.69 0.00 1.27 97 1012.3
20260510030022 8 0 0.0 0.0 321.69 0.00 1.27 97 1012.5
20260510025521 8 0 0.0 0.0 321.69 0.00 1.27 97 1012.7
20260510024524 8 0 0.0 0.0 321.69 0.00 1.27 97 1012.7
20260510023521 8 0 0.0 0.0 321.69 0.00 1.27 97 1012.8
20260510023027 8 0 0.0 0.0 321.69 0.00 1.27 97 1012.7
20260510021022 8 0 0.0 0.0 321.69 0.00 1.27 97 1012.8
20260510020522 8 0 0.0 0.0 321.69 0.00 1.27 97 1012.8
20260510020023 8 0 0.0 0.0 321.69 0.00 1.27 97 1012.8
20260510014526 8 0 0.0 0.0 321.69 0.00 1.27 97 1013.0
20260510014022 8 0 0.0 0.0 321.69 0.00 1.27 97 1013.0
20260510013522 8 0 0.0 0.0 321.69 0.00 1.27 97 1012.9
20260510013022 8 0 0.0 0.0 321.69 0.00 1.27 97 1012.7
20260510012521 8 0 0.0 0.0 321.69 0.00 1.27 97 1012.8
20260510012023 8 0 0.0 0.0 321.69 0.00 1.27 97 1012.8
20260510011522 8 0 0.0 0.0 321.69 0.00 1.27 97 1012.8
20260510010522 8 0 0.0 0.0 321.69 0.00 1.27 97 1012.8
20260510010022 8 0 0.0 0.0 321.69 0.00 1.27 97 1012.7
20260510005521 8 0 0.0 0.0 321.67 0.00 1.24 97 1012.6
20260510005021 8 0 0.0 0.0 321.67 0.00 1.24 97 1012.5
20260510004523 8 0 0.0 0.0 321.67 0.00 1.24 97 1012.5
20260510004021 8 0 0.0 0.0 321.67 0.00 1.24 97 1012.4
20260510003022 8 0 0.0 0.0 321.67 0.00 1.24 97 1012.5
20260510002522 8 27 0.0 3.2 321.67 0.00 1.24 97 1012.4
20260510002022 8 0 0.0 0.0 321.64 0.00 1.22 97 1012.4
20260510001522 8 0 0.0 0.0 321.64 0.00 1.22 97 1012.7
20260510000022 8 0 0.0 0.0 321.64 0.00 1.22 97 1012.9
20260509235521 8 0 0.0 0.0 321.64 0.00 1.22 97 1012.8
20260509235021 8 0 0.0 0.0 321.64 0.00 1.22 97 1012.9
20260509234523 8 0 0.0 0.0 321.64 0.00 1.22 97 1012.8
20260509233022 8 96 3.2 4.8 321.64 0.00 1.22 97 1012.7
20260509231522 9 75 0.0 4.8 321.61 0.00 1.19 97 1012.6
20260509231021 9 79 3.2 6.4 321.61 0.00 1.19 97 1012.5
20260509230022 9 59 3.2 6.4 321.59 0.00 1.17 97 1012.4
20260509225521 9 0 1.6 0.0 321.59 0.00 1.17 97 1012.5
20260509225022 9 0 0.0 0.0 321.56 0.00 1.14 97 1012.4
20260509224522 9 0 0.0 0.0 321.56 0.00 1.14 97 1012.4
20260509224021 9 0 0.0 0.0 321.56 0.00 1.14 97 1012.5
20260509223521 9 68 0.0 4.8 321.56 0.00 1.14 97 1012.4
20260509222522 9 101 3.2 4.8 321.54 0.00 1.12 97 1012.4
20260509222021 9 52 3.2 6.4 321.54 0.00 1.12 97 1012.5
20260509221522 9 94 4.8 4.8 321.51 0.00 1.09 97 1012.4
20260509220522 10 101 3.2 3.2 321.49 0.00 1.07 97 1012.5
20260509215022 10 66 3.2 4.8 321.49 0.00 1.07 97 1012.6
20260509214522 10 0 0.0 0.0 321.46 0.00 1.04 96 1012.7
20260509214021 10 98 0.0 3.2 321.46 0.00 1.04 96 1012.8
20260509213521 10 0 0.0 0.0 321.44 0.00 1.02 96 1012.8
20260509212523 9 0 0.0 0.0 321.41 0.00 0.99 96 1013.0
20260509211521 9 0 0.0 0.0 321.36 0.00 0.94 96 1013.0
20260509211021 10 66 0.0 3.2 321.31 0.00 0.89 96 1013.1
20260509210524 10 328 3.2 3.2 321.31 0.00 0.89 96 1013.1
20260509210023 10 60 1.6 4.8 321.28 0.00 0.86 96 1013.1
20260509205521 10 295 1.6 6.4 321.23 0.00 0.81 96 1013.1
20260509204521 10 0 0.0 0.0 321.13 0.00 0.71 95 1012.9
20260509203521 10 0 0.0 0.0 321.08 0.00 0.66 95 1013.0
20260509202521 10 0 0.0 0.0 321.03 0.00 0.61 95 1013.1
20260509202023 10 0 0.0 0.0 321.01 0.00 0.58 94 1013.0
20260509201521 10 0 0.0 0.0 321.01 0.00 0.58 94 1012.9
20260509201021 10 0 0.0 0.0 321.01 0.00 0.58 94 1012.9
20260509200021 10 15 1.6 3.2 320.95 0.00 0.53 94 1012.9
20260509195521 10 35 0.0 1.6 320.93 0.00 0.51 93 1013.0
20260509195021 10 354 0.0 3.2 320.93 0.00 0.51 93 1013.1
20260509194522 10 51 1.6 4.8 320.93 0.00 0.51 93 1013.0
20260509194021 10 0 0.0 0.0 320.93 0.00 0.51 93 1012.9
20260509192022 10 10 1.6 3.2 320.93 0.00 0.51 93 1012.8
20260509191521 10 0 0.0 0.0 320.93 0.00 0.51 94 1012.7
20260509191021 10 23 0.0 3.2 320.93 0.00 0.51 94 1012.8
20260509184521 10 23 1.6 3.2 320.93 0.00 0.51 95 1013.0
20260509183521 9 114 3.2 6.4 320.93 0.00 0.51 96 1013.5
20260509183021 9 20 3.2 3.2 320.93 0.00 0.51 96 1013.3
20260509182521 9 15 1.6 3.2 320.93 0.00 0.51 96 1013.4
20260509182021 9 34 0.0 1.6 320.93 0.00 0.51 96 1013.5
20260509181521 8 101 0.0 1.6 320.93 0.00 0.51 96 1013.6
20260509180521 8 0 0.0 0.0 320.93 0.00 0.51 95 1013.8
20260509180022 8 0 0.0 0.0 320.90 0.00 0.48 95 1013.8
20260509175025 8 0 0.0 0.0 320.90 0.00 0.48 95 1014.0
20260509174521 8 0 0.0 0.0 320.90 0.00 0.48 95 1014.1
20260509171522 8 0 0.0 0.0 320.85 0.00 0.43 95 1014.0
20260509165021 8 0 0.0 0.0 320.80 0.00 0.38 95 1014.5
20260509164522 8 101 0.0 1.6 320.80 0.00 0.38 95 1014.4
20260509163520 8 0 0.0 0.0 320.78 0.00 0.36 95 1014.4
20260509163022 8 0 0.0 0.0 320.75 0.00 0.33 95 1014.7
20260509161521 8 0 0.0 0.0 320.73 0.00 0.30 95 1014.4
20260509160520 8 0 0.0 0.0 320.70 0.00 0.28 95 1014.1
20260509160022 8 59 0.0 3.2 320.70 0.00 0.28 95 1014.3
20260509155021 8 0 0.0 0.0 320.70 0.00 0.28 95 1014.3
20260509154521 8 0 0.0 0.0 320.68 0.00 0.25 95 1014.3
20260509150522 7 338 0.0 3.2 320.65 0.00 0.23 95 1014.9
20260509150023 7 336 0.0 3.2 320.62 0.00 0.20 95 1015.0
20260509144522 7 335 1.6 3.2 320.62 0.00 0.20 95 1015.1
20260509144022 7 0 0.0 0.0 320.62 0.00 0.20 95 1015.2
20260509143521 7 328 0.0 1.6 320.62 0.00 0.20 95 1015.1
20260509143021 7 330 0.0 1.6 320.60 0.00 0.18 95 1015.0
20260509142520 7 0 0.0 0.0 320.60 0.00 0.18 95 1015.1
20260509142021 7 0 0.0 0.0 320.60 0.00 0.18 95 1015.3
20260509141020 6 0 0.0 0.0 320.57 0.00 0.15 95 1015.3
20260509140520 6 231 0.0 1.6 320.57 0.00 0.15 95 1015.3
20260509140021 6 219 1.6 1.6 320.55 0.00 0.13 95 1015.4
20260509135520 6 0 0.0 0.0 320.55 0.00 0.13 94 1015.3
20260509135020 6 0 0.0 0.0 320.55 0.00 0.13 94 1015.3
20260509134521 6 0 0.0 0.0 320.52 0.00 0.10 93 1015.3
20260509134020 6 0 0.0 0.0 320.52 0.00 0.10 94 1015.2
20260509133021 6 0 0.0 0.0 320.50 0.00 0.08 93 1014.9
20260509132020 6 0 0.0 0.0 320.50 0.00 0.08 93 1014.8
20260509131521 6 0 0.0 0.0 320.50 0.00 0.08 93 1014.8
20260509131020 6 0 0.0 0.0 320.47 0.00 0.05 92 1014.9
20260509130021 6 0 0.0 0.0 320.47 0.00 0.05 92 1015.0
20260509125520 6 0 0.0 0.0 320.47 0.00 0.05 92 1015.0
20260509124521 6 0 0.0 0.0 320.45 0.00 0.03 92 1015.1
20260509123520 6 0 1.6 0.0 320.45 0.00 0.03 92 1015.2
20260509122521 5 0 0.0 0.0 320.45 0.00 0.03 92 1015.0
20260509122020 5 0 0.0 0.0 320.45 0.00 0.03 92 1015.0
20260509121521 5 0 0.0 0.0 320.45 0.00 0.03 92 1015.2
20260509120520 5 0 0.0 0.0 320.42 0.00 0.00 92 1015.2
20260509120026 5 0 0.0 0.0 320.42 0.00 0.00 92 1015.2
20260509114521 4 0 0.0 0.0 320.42 0.00 0.00 92 1015.4
20260509113021 3 338 0.0 3.2 320.42 0.00 0.00 94 1015.4
20260509112020 3 204 6.4 6.4 320.42 0.00 0.00 95 1015.5
20260509111523 3 0 3.2 0.0 320.42 0.00 0.00 95 1015.1
20260509111020 3 0 0.0 0.0 320.42 0.00 0.00 95 1015.3
20260509110520 3 0 0.0 0.0 320.42 0.00 0.00 96 1015.3
20260509110020 3 0 0.0 0.0 320.42 0.00 0.00 96 1015.3
20260509105022 2 0 0.0 0.0 320.42 0.00 0.00 96 1015.2
20260509104520 2 0 0.0 0.0 320.42 0.00 0.00 96 1015.1
20260509103021 2 0 0.0 0.0 320.42 0.00 0.00 96 1015.1
20260509102020 2 0 0.0 0.0 320.42 0.00 0.00 96 1015.0
20260509101523 2 0 0.0 0.0 320.42 0.00 0.00 96 1015.1
20260509101020 1 0 0.0 0.0 320.42 0.00 0.00 96 1015.0
20260509100521 1 0 0.0 0.0 320.42 0.00 0.00 96 1015.0
20260509095521 1 0 0.0 0.0 320.42 0.00 0.00 96 1014.8
20260509095020 1 288 0.0 1.6 320.42 0.00 0.00 96 1014.8
20260509094521 1 274 1.6 3.2 320.42 0.00 0.00 96 1014.7
20260509094021 1 255 1.6 1.6 320.42 0.00 0.00 96 1014.7
20260509093520 1 281 1.6 3.2 320.42 0.00 0.00 96 1014.6
20260509093021 1 280 3.2 3.2 320.42 0.00 0.00 95 1014.5
20260509092520 2 0 0.0 0.0 320.42 0.00 0.00 95 1014.5
20260509092020 2 0 0.0 0.0 320.42 0.00 0.00 96 1014.3
20260509091520 2 0 0.0 0.0 320.42 0.00 0.00 96 1014.4
20260509091020 2 288 0.0 1.6 320.42 0.00 0.00 96 1014.3
20260509090520 2 291 1.6 4.8 320.42 0.00 0.00 96 1014.3
20260509090021 2 288 3.2 6.4 320.42 0.00 0.00 96 1014.3
20260509084602 2 263 3.2 6.4 320.42 0.00 0.00 96 1014.3
20260509084520 2 263 3.2 6.4 320.42 0.00 0.00 96 1014.3
20260509083020 2 288 3.2 4.8 320.42 0.00 0.00 95 1014.2